[[{"header":{"parameterUnit":"m.s-1","parameterCategory":1,"la1":30.2991,"la2":30.254,"lo1":-89.0895,"lo2":-89.0444,"dy":0.0017,"dx":0.0017,"nx":28,"ny":28,"refTime":"2024-07-18T21:00:00:Z","depth":0,"parameterNumber":2,"parameterNumberName":"U-component_of_WINDS"},"data":[0,0,0,0,0,0,0,0,0,0,0,0,0,0,0,0,0,0,0,0,0,0,0,0,0,0,0,0,0,0,0,0,0,0,0,0,0,0,0,0,0,0,0,0,0,0,0,0,0,0,0,0,0,0,0,0,0,0,-1.838,-1.8379,0,-1.8259,-1.8258,-1.8257,-1.8195,-1.8195,-1.8195,-1.8195,-1.8067,-1.8063,-1.806,0,0,0,0,0,0,0,0,0,0,0,0,0,-1.8557,-1.8554,-1.8381,-1.8379,-1.8378,-1.826,-1.8258,-1.8256,-1.8195,-1.8195,-1.8195,-1.8195,-1.8068,-1.8064,-1.806,0,0,0,0,0,0,0,0,0,0,0,0,0,-1.8462,-1.8553,-1.8381,-1.8333,-1.8327,-1.826,-1.8258,-1.8256,-1.8195,-1.8195,-1.8195,-1.8195,-1.8069,-1.8064,-1.8059,-1.8029,0,0,-1.8044,-1.8041,0,0,0,0,0,0,0,0,-1.8468,-1.8456,-1.8341,-1.8336,-1.833,-1.8242,-1.8273,-1.818,-1.8195,-1.8245,-1.8195,-1.8195,-1.8125,-1.8115,-1.8092,-1.8023,-1.8017,-1.8043,-1.804,-1.8038,-1.8036,0,0,0,0,0,0,0,-1.8474,-1.8461,-1.8332,-1.834,-1.8333,-1.8317,-1.8303,-1.8255,-1.8186,-1.8241,-1.8236,-1.8223,-1.8122,-1.8097,-1.8089,-1.8015,-1.8043,-1.8039,-1.8036,-1.8034,-1.7917,-1.7917,0,0,0,0,0,0,-1.8489,-1.8466,-1.8336,-1.8329,-1.84,-1.8313,-1.8298,-1.827,-1.8187,-1.8174,-1.8223,-1.822,-1.8106,-1.8095,-1.8084,-1.8044,-1.8038,-1.8033,-1.803,-1.7917,-1.7917,-1.7917,0,0,0,0,0,0,-1.8493,-1.8478,-1.8341,-1.8396,-1.8378,-1.8311,-1.8279,-1.8268,-1.8244,-1.8173,-1.8161,-1.8211,-1.8106,-1.8091,-1.8044,-1.8039,-1.8031,-1.8026,-1.7917,-1.7917,-1.7917,-1.7963,0,0,0,0,0,0,-1.8498,-1.848,-1.8468,-1.8397,-1.8375,-1.8303,-1.8279,-1.8266,-1.8236,-1.8231,-1.8159,-1.8147,-1.8104,-1.8052,-1.8039,-1.8031,-1.8022,-1.7917,-1.7917,-1.7917,-1.7962,-1.7965,-1.7967,0,0,0,0,0,-1.8505,-1.8485,-1.8468,-1.8452,-1.8359,-1.8303,-1.8291,-1.8244,-1.8236,-1.8223,-1.8178,-1.8149,-1.8042,-1.8047,-1.8032,-1.8023,-1.7917,-1.7917,-1.7917,-1.7961,-1.7964,-1.7967,0,0,0,0,0,0,-1.8555,-1.8474,-1.8454,-1.8411,-1.8365,-1.8293,-1.8275,-1.8249,-1.8203,-1.82,-1.8143,-1.8127,-1.8085,-1.8049,-1.8057,-1.7991,-1.7976,-1.7973,-1.8015,-1.8018,-1.8021,-1.8029,-1.8018,0,0,0,0,0,-1.8562,-1.8524,-1.8455,-1.8423,-1.8401,-1.8343,-1.8317,-1.8285,-1.8234,-1.8213,-1.8165,-1.8116,-1.8071,-1.8043,-1.7997,-1.7957,-1.794,-1.7944,-1.7947,-1.7949,-1.7947,-1.7923,-1.7924,-1.7916,-1.7916,-1.7916,0,0,-1.8573,-1.8525,-1.8504,-1.8432,-1.8392,-1.8354,-1.8326,-1.8287,-1.8258,-1.8207,-1.8159,-1.8123,-1.8064,-1.8021,-1.7999,-1.799,-1.7946,-1.7949,-1.7952,-1.7947,-1.7923,-1.7924,-1.7925,-1.7916,-1.7916,-1.7916,0,0,-1.8576,-1.8535,-1.8505,-1.8467,-1.8408,-1.8369,-1.8363,-1.8295,-1.8269,-1.8222,-1.8183,-1.8148,-1.8071,-1.8032,-1.8002,-1.7992,-1.7964,-1.7979,-1.7993,-1.7971,-1.7972,-1.7972,-1.7969,-1.7968,-1.7977,-1.7977,-1.7977,0,-1.8597,-1.8539,-1.8492,-1.8455,-1.8425,-1.838,-1.8348,-1.8313,-1.8242,-1.8222,-1.8214,-1.8119,-1.8076,-1.8023,-1.8021,-1.7998,-1.7988,-1.7986,-1.7976,-1.7975,-1.7975,-1.7971,-1.797,-1.798,-1.7979,-1.7979,-1.7979,0,-1.8569,-1.853,-1.8512,-1.8447,-1.8415,-1.8381,-1.8328,-1.8301,-1.8273,-1.8236,-1.8188,-1.8136,-1.808,-1.8065,-1.8036,-1.8008,-1.8005,-1.7987,-1.7971,-1.7979,-1.7974,-1.7972,-1.7983,-1.7982,-1.7981,-1.7981,0,0,-1.8597,-1.8509,-1.8503,-1.8474,-1.8407,-1.8375,-1.834,-1.8287,-1.8265,-1.8218,-1.8187,-1.8125,-1.8109,-1.8075,-1.8041,-1.8022,-1.8019,-1.8007,-1.8004,-1.8011,-1.7986,-1.7999,-1.7998,-1.8001,-1.8,-1.8,-1.7991,0,-1.859,-1.8525,-1.8483,-1.8435,-1.8398,-1.8356,-1.8325,-1.8281,-1.8245,-1.8209,-1.8169,-1.8126,-1.8108,-1.8088,-1.8067,-1.8024,-1.8013,-1.8024,-1.797,-1.7969,-1.7985,-1.7996,-1.8009,-1.8003,-1.7989,-1.7988,-1.7988,0,-1.8572,-1.8529,-1.8478,-1.8417,-1.84,-1.8373,-1.8322,-1.8287,-1.8236,-1.8212,-1.8176,-1.8143,-1.8103,-1.8093,-1.8038,-1.8047,-1.8022,-1.7998,-1.7997,-1.7989,-1.7978,-1.7988,-1.7999,-1.7998,-1.7985,-1.7985,-1.7985,0,-1.8598,-1.8527,-1.8487,-1.8463,-1.8391,-1.8373,-1.8342,-1.8291,-1.8263,-1.8219,-1.82,-1.8151,-1.8124,-1.8087,-1.8041,-1.8038,-1.7991,-1.7976,-1.7969,-1.797,-1.796,-1.7961,-1.7967,-1.7946,-1.7946,-1.7946,-1.7946,0,-1.8593,-1.8564,-1.8498,-1.8473,-1.8439,-1.8391,-1.8358,-1.8324,-1.8279,-1.8247,-1.8208,-1.8178,-1.812,-1.8084,-1.8048,-1.8008,-1.7996,-1.7975,-1.7966,-1.7978,-1.7981,-1.7961,-1.796,-1.7946,-1.7946,-1.7946,-1.7946,0,-1.8615,-1.857,-1.8525,-1.8461,-1.8445,-1.8422,-1.8367,-1.8342,-1.8306,-1.8266,-1.8254,-1.8196,-1.8152,-1.8103,-1.8042,-1.8018,-1.798,-1.7967,-1.7997,-1.7992,-1.7987,-1.7988,-1.798,-1.7977,-1.7959,-1.7959,-1.7959,0,-1.8615,-1.8592,-1.8527,-1.8503,-1.8474,-1.8436,-1.8407,-1.836,-1.8332,-1.8273,-1.8255,-1.8208,-1.8167,-1.8098,-1.805,-1.8004,-1.7989,-1.7989,-1.7981,-1.7995,-1.7988,-1.799,-1.7988,-1.7991,-1.7992,-1.7992,-1.7992,0,-1.8619,-1.8599,-1.856,-1.8514,-1.8482,-1.8443,-1.8402,-1.8385,-1.8329,-1.8299,-1.8254,-1.8223,-1.8162,-1.8115,-1.8063,-1.803,-1.8002,-1.7996,-1.7991,-1.8003,-1.8022,-1.8012,-1.8003,-1.7996,-1.7995,-1.7995,-1.7995,-1.7995,-1.863,-1.8607,-1.8559,-1.8517,-1.8482,-1.8446,-1.8419,-1.8381,-1.8343,-1.829,-1.8264,-1.8219,-1.817,-1.8098,-1.8066,-1.803,-1.8021,-1.8015,-1.8013,-1.8012,-1.8016,-1.8029,-1.8021,-1.802,-1.802,-1.802,-1.802,0,-1.8632,-1.8599,-1.8562,-1.8507,-1.8475,-1.8453,-1.8408,-1.8381,-1.8343,-1.83,-1.8262,-1.8211,-1.8166,-1.8117,-1.8069,-1.805,-1.8036,-1.8039,-1.8039,-1.8032,-1.8026,-1.8035,-1.8051,-1.8051,-1.8051,-1.8051,-1.8051,-1.8051,-1.8629,-1.859,-1.8565,-1.8508,-1.8475,-1.8432,-1.8408,-1.8374,-1.834,-1.8285,-1.8249,-1.8218,-1.8172,-1.8122,-1.808,-1.8066,-1.805,-1.8057,-1.804,-1.8035,-1.8033,-1.803,-1.8038,-1.8055,-1.8055,-1.8049,-1.8049,-1.8049]},{"header":{"parameterUnit":"m.s-1","parameterCategory":1,"la1":30.2991,"la2":30.254,"lo1":-89.0895,"lo2":-89.0444,"dy":0.0017,"dx":0.0017,"nx":28,"ny":28,"refTime":"2024-07-18T21:00:00:Z","depth":0,"parameterNumber":3,"parameterNumberName":"V-component_of_WINDS"},"data":[0,0,0,0,0,0,0,0,0,0,0,0,0,0,0,0,0,0,0,0,0,0,0,0,0,0,0,0,0,0,0,0,0,0,0,0,0,0,0,0,0,0,0,0,0,0,0,0,0,0,0,0,0,0,0,0,0,0,3.2213,3.2213,0,3.2169,3.2168,3.2168,3.2105,3.2104,3.2103,3.2102,3.2058,3.2058,3.2058,0,0,0,0,0,0,0,0,0,0,0,0,0,3.2245,3.2245,3.2213,3.2213,3.2212,3.2169,3.2168,3.2167,3.2105,3.2104,3.2103,3.2102,3.2058,3.2058,3.2058,0,0,0,0,0,0,0,0,0,0,0,0,0,3.2219,3.2245,3.2213,3.2176,3.2172,3.2169,3.2168,3.2167,3.2106,3.2104,3.2102,3.2101,3.2058,3.2058,3.2058,3.2089,0,0,3.2057,3.2057,0,0,0,0,0,0,0,0,3.2221,3.2218,3.2182,3.2178,3.2174,3.2141,3.2163,3.2141,3.2106,3.2131,3.2102,3.21,3.2087,3.2084,3.208,3.2086,3.2085,3.2057,3.2057,3.2057,3.2057,0,0,0,0,0,0,0,3.2223,3.222,3.2195,3.2181,3.2177,3.2161,3.2156,3.2159,3.2119,3.2129,3.2124,3.2119,3.2085,3.208,3.2078,3.2084,3.2057,3.2057,3.2057,3.2057,3.2112,3.2113,0,0,0,0,0,0,3.223,3.2222,3.2197,3.2194,3.2194,3.2162,3.2156,3.2153,3.2118,3.2112,3.2121,3.2117,3.2081,3.2079,3.2076,3.2108,3.2057,3.2057,3.2057,3.211,3.2112,3.2114,0,0,0,0,0,0,3.2231,3.2228,3.2199,3.2207,3.2202,3.2163,3.2161,3.2153,3.2148,3.2113,3.2105,3.2123,3.208,3.2077,3.2085,3.2106,3.2057,3.2056,3.2108,3.2111,3.2113,3.2172,0,0,0,0,0,0,3.2232,3.2229,3.224,3.2207,3.2201,3.2208,3.2162,3.2153,3.2148,3.2142,3.2113,3.2107,3.2078,3.2086,3.2085,3.2104,3.2056,3.2106,3.2109,3.2112,3.2168,3.2177,3.2184,0,0,0,0,0,3.2233,3.2259,3.2241,3.2238,3.2214,3.221,3.2206,3.2173,3.215,3.216,3.2137,3.2107,3.2104,3.2088,3.2086,3.2105,3.2105,3.2108,3.2112,3.2165,3.2175,3.2183,0,0,0,0,0,0,3.2296,3.2254,3.2233,3.2249,3.2233,3.2199,3.2211,3.2185,3.2175,3.217,3.213,3.2124,3.2137,3.2122,3.2105,3.2132,3.21,3.2103,3.2141,3.215,3.2157,3.216,3.2056,0,0,0,0,0,3.2312,3.2311,3.2275,3.2292,3.2285,3.225,3.2247,3.2222,3.2204,3.2197,3.2175,3.2159,3.2154,3.2152,3.2145,3.2167,3.2159,3.2179,3.2187,3.2193,3.2196,3.2205,3.2213,3.2126,3.2126,3.2125,0,0,3.2344,3.2321,3.2323,3.2304,3.2289,3.2289,3.2245,3.2247,3.2246,3.2198,3.2203,3.2187,3.2166,3.2181,3.2186,3.2169,3.2219,3.2198,3.2203,3.2203,3.2209,3.2218,3.2225,3.2128,3.2128,3.2127,0,0,3.2402,3.2386,3.2397,3.2383,3.236,3.2336,3.2339,3.2309,3.2295,3.23,3.2263,3.2263,3.2256,3.2242,3.2234,3.2287,3.2259,3.2286,3.2325,3.2334,3.234,3.2346,3.2363,3.237,3.229,3.229,3.229,0,3.2445,3.2443,3.2407,3.2411,3.2403,3.2359,3.237,3.2358,3.2335,3.2331,3.2312,3.2301,3.2284,3.2294,3.2307,3.2303,3.2304,3.2288,3.2342,3.2348,3.2353,3.2368,3.2375,3.2293,3.2293,3.2292,3.2292,0,3.2496,3.2495,3.2508,3.2485,3.2479,3.2487,3.2452,3.245,3.2427,3.2405,3.2411,3.2389,3.2377,3.2378,3.2356,3.2384,3.2374,3.235,3.2316,3.2365,3.2379,3.2385,3.2298,3.2297,3.2296,3.2295,0,0,3.2591,3.2548,3.2553,3.2541,3.2513,3.2511,3.2517,3.2504,3.2503,3.2489,3.2492,3.2487,3.2463,3.2455,3.243,3.2439,3.2479,3.2413,3.2412,3.2424,3.2508,3.2525,3.2532,3.2461,3.2462,3.2463,3.2509,0,3.2641,3.2648,3.2616,3.263,3.2628,3.2587,3.2592,3.2575,3.2555,3.2551,3.2529,3.2525,3.2496,3.249,3.2496,3.2473,3.2495,3.247,3.2463,3.2463,3.2467,3.254,3.2558,3.2602,3.2514,3.2515,3.2516,0,3.2701,3.2689,3.2703,3.2672,3.2671,3.2675,3.266,3.2657,3.2637,3.2622,3.2612,3.2584,3.2587,3.2557,3.256,3.2543,3.2539,3.2528,3.2528,3.2525,3.2491,3.2536,3.2615,3.2621,3.2524,3.2524,3.2523,0,3.2766,3.2753,3.276,3.2751,3.2717,3.2721,3.2707,3.2685,3.2679,3.2667,3.2662,3.2651,3.2644,3.2636,3.2605,3.2586,3.2612,3.2579,3.2599,3.2599,3.2604,3.2604,3.2682,3.2605,3.2605,3.2605,3.2605,0,3.2825,3.2834,3.2788,3.2792,3.2801,3.2765,3.2776,3.2758,3.2739,3.2738,3.2703,3.2703,3.2663,3.2659,3.2636,3.2641,3.2639,3.2626,3.262,3.2628,3.263,3.2623,3.2619,3.2607,3.2606,3.2606,3.2606,0,3.2898,3.2867,3.2871,3.2838,3.283,3.2838,3.281,3.2812,3.279,3.2789,3.2787,3.2753,3.2746,3.2715,3.2702,3.2686,3.2699,3.2687,3.2705,3.27,3.2721,3.2719,3.2796,3.2803,3.2724,3.2725,3.2726,0,3.2936,3.2942,3.291,3.2906,3.2893,3.2889,3.2882,3.2847,3.2842,3.2819,3.2824,3.2814,3.2804,3.2795,3.2769,3.2758,3.2745,3.2772,3.2743,3.2751,3.2743,3.2742,3.2741,3.2778,3.2779,3.278,3.2781,0,3.3006,3.2991,3.2982,3.2968,3.2961,3.2949,3.2935,3.2934,3.2895,3.2891,3.2883,3.2875,3.2861,3.2851,3.2836,3.2822,3.2794,3.2791,3.2794,3.2802,3.2811,3.2805,3.272,3.2788,3.2788,3.2787,3.2787,3.2786,3.3061,3.3064,3.3042,3.3033,3.3019,3.3006,3.3005,3.2983,3.2976,3.2961,3.2941,3.2936,3.2915,3.2891,3.2879,3.2874,3.2859,3.2865,3.2866,3.2867,3.2871,3.2814,3.2872,3.2872,3.2871,3.2871,3.2871,0,3.3128,3.3111,3.3104,3.3084,3.3078,3.3053,3.3036,3.3032,3.3027,3.301,3.3001,3.2991,3.2982,3.2955,3.2943,3.2944,3.2931,3.2942,3.2941,3.2937,3.2886,3.2883,3.2953,3.2953,3.2953,3.2953,3.2953,3.2953,3.3162,3.3165,3.3147,3.3143,3.3126,3.312,3.3112,3.31,3.3085,3.3076,3.3068,3.3051,3.3029,3.3015,3.3005,3.2998,3.2994,3.3009,3.2997,3.2949,3.2941,3.2934,3.2931,3.3009,3.3009,3.3048,3.3049,3.3049]}]]